This is the latest recevied weather packets stored in our database for station/object K7AZM. If no packets are shown the sender has not sent any weather packets the latest 10 day(s).
| Time | Temp. | Humidity | Pressure | Rain* | Wind** | Luminosity | Snow |
|---|---|---|---|---|---|---|---|
| 1777525222 | 25° C | 14% | 1013.7 hPa | 0 mm | - | - | - |
| 1777524922 | 25° C | 14% | 1013.7 hPa | 0 mm | - | - | - |
| 1777524022 | 24.44° C | 15% | 1013.5 hPa | 0 mm | - | - | - |
| 1777523721 | 24.44° C | 15% | 1013.5 hPa | 0 mm | - | - | - |
| 1777517722 | 25.56° C | 16% | 1012.1 hPa | 0 mm | - | - | - |
| 1777517422 | 26.11° C | 15% | 1012.1 hPa | 0 mm | - | - | - |
| 1777512922 | 27.78° C | 12% | 1011.4 hPa | 0 mm | - | - | - |
| 1777511422 | 28.33° C | 10% | 1011.7 hPa | 0 mm | - | - | - |
| 1777510821 | 28.33° C | 10% | 1011.8 hPa | 0 mm | - | - | - |
| 1777505723 | 29.44° C | 10% | 1011.8 hPa | 0 mm | - | - | - |
| 1777503921 | 30° C | 9% | 1012 hPa | 0 mm | - | - | - |
| 1777501522 | 30.56° C | 8% | 1013 hPa | 0 mm | - | - | - |
| 1777499721 | 30.56° C | 10% | 1013.7 hPa | 0 mm | - | - | - |
| 1777496122 | 30° C | 10% | 1014.1 hPa | 0 mm | - | - | - |
| 1777495842 | 30° C | 10% | 1014.1 hPa | 0 mm | - | - | - |
| 1777494322 | 29.44° C | 12% | 1014.4 hPa | 0 mm | - | - | - |
| 1777493421 | 28.89° C | 12% | 1014.6 hPa | 0 mm | - | - | - |
| 1777491642 | 28.89° C | 12% | 1015.1 hPa | 0 mm | - | - | - |
| 1777490722 | 28.89° C | 12% | 1015.5 hPa | 0 mm | - | - | - |
| 1777489822 | 28.89° C | 13% | 1015.4 hPa | 0 mm | - | - | - |
| 1777488622 | 28.33° C | 13% | 1015.8 hPa | 0 mm | - | - | - |
| 1777487421 | 28.89° C | 14% | 1016.3 hPa | 0 mm | - | - | - |
| 1777486522 | 28.33° C | 13% | 1016.5 hPa | 0 mm | - | - | - |
| 1777486222 | 28.89° C | 13% | 1016.6 hPa | 0 mm | - | - | - |
| 1777485322 | 28.33° C | 14% | 1016.9 hPa | 0 mm | - | - | - |
* Rain latest hour (hover to see other rain measurements)
** Current wind speed in m/s (hover to see current wind gust speed)